Content
SEND FEEDBACK

Daily
Averages
Monthly
Summary
United States of America

COBDEN, ILLINOIS


Home > North America > United States > Illinois
Elevation: 190 meters     Latitude: 37 30N     Longitude: 089 15W

WEATHER
 
SELECT A DAY
Number of Records: 197,518;   Date Range: 1/1/95 - 4/16/14
 
SHARE

PRINT THIS DATA

[ ← Previous Day ]
WEATHER ALMANAC - 13 FEBRUARY, 2013
[ Next Day → ]
[ °F ]   °C
Weather ElementAverageHighLow
Temperature5.3 °C11.1 °C (2:52 pm)2.2 °C (10:52 pm)
Dewpoint0.9 °C2.2 °C (10:52 am)-2.2 °C (2:52 pm)
Humidity75.4 %87 % (4:45 am)40 % (2:52 pm)
Barometer1012.5 hPa1013.9 hPa (8:52 am)1011.2 hPa (2:52 pm)
Wind Speed10.6 km/h16.7 km/h (4:14 am)
Wind Gust48.1 km/h (7:18 am)
Weather ElementAverage
Visibility12.4 km
Wind DirectionSW (221.2 °)

Weather ElementTotal
Precipitation3.56 mm
Heating Degree Days11.7 (Base 18.3)
Averaged from 34 records on 13 February, 2013
WEATHER CONDITIONS BREAKOUT
WIND DIRECTION BREAKOUT
WEATHER BY HOUR - 13 FEBRUARY, 2013
[ °F ]   °C
Local TimeTemperatureDewpointHumidityBarometerVisibilityWind DirectionWind SpeedGust SpeedPrecipitationEventsConditions
1:52 AM5.6 °C-0.6 °C65 %1012.9 hPa16.1 kmNorth (350°)11.1 km/hOvercast
2:52 AM5 °C0 °C70 %1012.2 hPa16.1 kmNorth (350°)7.4 km/hOvercast
3:52 AM4.4 °C0.6 °C77 %1012.2 hPa14.5 kmNNW (340°)14.8 km/h0 mmRainLight Rain
4:14 AM4 °C1 °C81 %1012.2 hPa11.3 kmNNW (340°)16.7 km/h0 mmRainLight Rain
4:45 AM3 °C1 °C87 %1011.9 hPa8 kmNNW (340°)13 km/h0.25 mmRainLight Rain
4:52 AM3.3 °C1.1 °C86 %1012.2 hPa9.7 kmNNW (340°)9.3 km/h0.51 mmRainLight Rain
5:00 AM3 °C1 °C87 %1011.9 hPa9.7 kmNorth (350°)13 km/h0 mmRainLight Rain
5:52 AM3.3 °C1.1 °C86 %1012.2 hPa9.7 kmCalm0.51 mmRainLight Rain
6:35 AM3 °C1 °C87 %1011.9 hPa12.9 kmCalm0.25 mmRainLight Rain
6:52 AM3.3 °C1.1 °C86 %1012.5 hPa11.3 kmCalm0.25 mmRainLight Rain
7:09 AM3 °C1 °C87 %1012.2 hPa8 kmNorth0 mmRainLight Rain
7:18 AM3 °C1 °C87 %1012.5 hPa4.8 kmNW (320°)14.8 km/h48.1 km/h0.25 mmRainLight Rain
7:37 AM3 °C1 °C87 %1012.5 hPa4 kmNNW (330°)14.8 km/h0.51 mmRainLight Rain
7:52 AM3.3 °C1.1 °C86 %1013.2 hPa4 kmNNW (330°)13 km/h0.51 mmRainLight Rain
8:35 AM3 °C1 °C87 %1013.5 hPa4.8 kmNW (320°)11.1 km/h0.25 mmRainLight Rain
8:52 AM3.3 °C1.1 °C86 %1013.9 hPa4.8 kmNW (320°)9.3 km/h0.25 mmRainLight Rain
9:44 AM4 °C2 °C87 %1013.5 hPa8 kmWSW (240°)5.6 km/h0 mmHaze
9:52 AM4.4 °C1.7 °C83 %1013.9 hPa9.7 kmWSW (240°)5.6 km/h0 mmHaze
10:52 AM6.7 °C2.2 °C73 %1013.5 hPa14.5 kmCalmScattered Clouds
11:04 AM7 °C2 °C71 %1013.2 hPa16.1 kmVariable7.4 km/hOvercast
11:37 AM8 °C2 °C66 %1012.9 hPa16.1 kmWSW (240°)13 km/hOvercast
11:52 AM8.3 °C1.7 °C63 %1012.9 hPa16.1 kmWSW (240°)13 km/hScattered Clouds
12:52 PM9.4 °C0 °C52 %1012.2 hPa16.1 kmWest (260°)11.1 km/hPartly Cloudy
1:52 PM10.6 °C-1.7 °C43 %1011.5 hPa16.1 kmSW (230°)16.7 km/hPartly Cloudy
2:52 PM11.1 °C-2.2 °C40 %1011.2 hPa16.1 kmWSW (240°)16.7 km/hClear
3:52 PM11.1 °C-1.7 °C41 %1011.2 hPa16.1 kmSW (230°)9.3 km/hClear
4:52 PM9.4 °C1.1 °C56 %1011.2 hPa16.1 kmSouth (180°)14.8 km/hClear
5:52 PM7.2 °C1.7 °C68 %1011.5 hPa16.1 kmSouth (190°)16.7 km/hClear
6:52 PM6.1 °C2.2 °C76 %1011.9 hPa16.1 kmSSW (200°)16.7 km/hClear
7:52 PM5.6 °C1.7 °C76 %1012.2 hPa16.1 kmSSW (210°)16.7 km/hClear
8:52 PM3.9 °C1.1 °C82 %1012.9 hPa16.1 kmSSW (200°)11.1 km/hClear
9:52 PM4.4 °C1.7 °C83 %1013.2 hPa16.1 kmSSW (210°)9.3 km/hClear
10:52 PM2.2 °C0 °C86 %1013.2 hPa16.1 kmSouth (190°)9.3 km/hClear
11:52 PM2.8 °C0.6 °C86 %1013.2 hPa16.1 kmSouth (190°)11.1 km/hClear
Hourly data recorded from KMDH, located 31.27 kilometers away from Cobden, Illinois







STORIES FROM OUR PARTNERS